sat.trackr.live / text

‹ back to catalog

STARLINK-11748 [DTC]

NORAD 64373 · 2025-127D

PAYLOAD ACTIVE UNKNOWN

§ Identity

Operator
Country
US
Launch date
2025-06-13
Launch site
AFETR
Launch vehicle
Mass (kg)
RCS (m²)

Purposes: comms

External: N2YO · Heavens-Above · Gunter

§ Orbital elements

Epoch: 2026-05-24T06:23:39.856992Z

Period
91.67 min
Inclination
43.0007°
Eccentricity
0.0000902
Mean motion
15.70875970 rev/d
Perigee alt
355.8 km
Apogee alt
357.0 km
Semi-major
6,734.5 km
B*
1.3193e-3
RAAN
349.4333°
Arg perigee
358.6994°
Mean anomaly
1.3871°
Rev number
5,538

§ Raw data

STARLINK-11748 [DTC]1 64373U 25127D   26144.26643353  .00172657  00000+0  13193-2 0  99952 64373  43.0007 349.4333 0000902 358.6994   1.3871 15.70875970 55383

JSON: /api/v1/satellites/64373 · /tle

For live sub-satellite position, see the globe view (requires WebGL).

§ Visibility from observer

Set your observer location to see the next 7 days of passes ≥ 10°. The values pass through the URL so the page stays shareable.

No JS? Fill the form by hand. The geolocation button needs JavaScript.